BJK162 EPWA-EGLL

Flight info

Callsign BJK162
Flight time 2h 2m
Altitude 40000
Route LOLSI DCT DIBLO DCT INDIG DCT SUBIX DCT HLZ DCT ABNED L980 LOGAN
Aircraft MD11/H-SDE1E2E3FGHIJ2J3J4J5M1RWXY/LB1D1

Departure

Time 2026-05-08 02:33
Airport Warsaw Chopin Airport (EPWA)

Arrival

Time 2026-05-08 04:35
Airport London Heathrow Airport (EGLL)
Time Latitude Longitude Altitude Speed Heading
2026-05-08 02:17 52.17272 20.96899 346 ft 0 kts 62°
2026-05-08 02:23 52.17272 20.96898 357 ft 1 kts 62°
2026-05-08 02:23 52.17264 20.96876 360 ft 3 kts 62°
2026-05-08 02:24 52.17255 20.96847 357 ft 3 kts 62°
2026-05-08 02:24 52.17245 20.96819 357 ft 3 kts 65°
2026-05-08 02:24 52.17239 20.96790 356 ft 3 kts 93°
2026-05-08 02:24 52.17243 20.96765 357 ft 2 kts 144°
2026-05-08 02:25 52.17253 20.96756 357 ft 2 kts 152°
2026-05-08 02:25 52.17265 20.96745 357 ft 1 kts 151°
2026-05-08 02:25 52.17266 20.96745 353 ft 0 kts 151°
2026-05-08 02:27 52.17260 20.96749 357 ft 3 kts 151°
2026-05-08 02:28 52.17219 20.96787 354 ft 10 kts 151°
2026-05-08 02:28 52.17153 20.96847 357 ft 12 kts 150°
2026-05-08 02:28 52.17076 20.96920 356 ft 14 kts 150°
2026-05-08 02:28 52.16991 20.96982 357 ft 13 kts 154°
2026-05-08 02:29 52.16918 20.97049 355 ft 12 kts 151°
2026-05-08 02:29 52.16847 20.97107 355 ft 11 kts 154°
2026-05-08 02:29 52.16774 20.97169 357 ft 13 kts 152°
2026-05-08 02:29 52.16686 20.97250 355 ft 15 kts 151°
2026-05-08 02:30 52.16599 20.97339 354 ft 14 kts 134°
2026-05-08 02:30 52.16556 20.97446 354 ft 12 kts 116°
2026-05-08 02:30 52.16515 20.97587 357 ft 16 kts 115°
2026-05-08 02:30 52.16461 20.97773 352 ft 20 kts 114°
2026-05-08 02:31 52.16399 20.97997 354 ft 22 kts 114°
2026-05-08 02:31 52.16338 20.98220 355 ft 21 kts 114°
2026-05-08 02:31 52.16288 20.98395 355 ft 11 kts 118°
2026-05-08 02:31 52.16236 20.98453 351 ft 8 kts 174°
2026-05-08 02:32 52.16173 20.98425 350 ft 12 kts 207°
2026-05-08 02:32 52.16135 20.98299 348 ft 12 kts 275°
2026-05-08 02:32 52.16160 20.98182 353 ft 40 kts 292°
2026-05-08 02:32 52.16446 20.97169 356 ft 153 kts 295°
2026-05-08 02:33 52.16954 20.95313 1036 ft 186 kts 296°
2026-05-08 02:33 52.17443 20.93535 2807 ft 164 kts 296°
2026-05-08 02:33 52.17907 20.91835 3973 ft 174 kts 290°
2026-05-08 02:33 52.18097 20.89643 4279 ft 218 kts 271°
2026-05-08 02:34 52.18045 20.86972 4477 ft 252 kts 268°
2026-05-08 02:34 52.18009 20.84101 5562 ft 255 kts 275°
2026-05-08 02:34 52.18273 20.81251 6749 ft 261 kts 280°
2026-05-08 02:34 52.18656 20.78326 7871 ft 267 kts 282°
2026-05-08 02:35 52.19069 20.75351 8990 ft 272 kts 282°
2026-05-08 02:35 52.19475 20.72314 10061 ft 277 kts 277°
2026-05-08 02:35 52.19464 20.69025 10350 ft 310 kts 259°
2026-05-08 02:35 52.18856 20.65456 10630 ft 341 kts 251°
2026-05-08 02:36 52.18033 20.61795 11587 ft 347 kts 249°
2026-05-08 02:36 52.17170 20.58096 12687 ft 351 kts 249°
2026-05-08 02:36 52.16300 20.54343 13699 ft 357 kts 249°
2026-05-08 02:36 52.15546 20.50459 14514 ft 363 kts 259°
2026-05-08 02:37 52.15348 20.46341 15374 ft 368 kts 269°
2026-05-08 02:37 52.15448 20.42144 16209 ft 374 kts 272°
2026-05-08 02:37 52.15650 20.37898 17046 ft 379 kts 273°
2026-05-08 02:37 52.15872 20.33606 17866 ft 383 kts 272°
2026-05-08 02:38 52.16088 20.29241 18624 ft 388 kts 272°
2026-05-08 02:38 52.16291 20.24842 19336 ft 392 kts 271°
2026-05-08 02:38 52.16483 20.20403 20021 ft 395 kts 271°
2026-05-08 02:38 52.16668 20.15914 20693 ft 399 kts 270°
2026-05-08 02:39 52.16849 20.11389 21344 ft 403 kts 270°
2026-05-08 02:39 52.17027 20.06814 22032 ft 407 kts 270°
2026-05-08 02:39 52.17204 20.02188 22657 ft 411 kts 270°
2026-05-08 02:39 52.17382 19.97515 23338 ft 415 kts 270°
2026-05-08 02:40 52.17560 19.92798 23949 ft 419 kts 270°
2026-05-08 02:40 52.17682 19.88028 24468 ft 422 kts 265°
2026-05-08 02:40 52.17492 19.83261 25050 ft 423 kts 259°
2026-05-08 02:40 52.17111 19.78489 25644 ft 426 kts 257°
2026-05-08 02:41 52.16657 19.73709 26250 ft 429 kts 256°
2026-05-08 02:41 52.16183 19.68880 26851 ft 434 kts 255°
2026-05-08 02:41 52.15713 19.64004 27445 ft 438 kts 255°
2026-05-08 02:41 52.15248 19.59065 28040 ft 442 kts 255°
2026-05-08 02:42 52.14794 19.54151 28627 ft 446 kts 255°
2026-05-08 02:42 52.14335 19.49129 29204 ft 451 kts 254°
2026-05-08 02:42 52.13867 19.43996 29776 ft 455 kts 254°
2026-05-08 02:42 52.13405 19.38947 30317 ft 459 kts 254°
2026-05-08 02:43 52.12930 19.33801 30902 ft 459 kts 255°
2026-05-08 02:43 52.12452 19.28689 31576 ft 456 kts 255°
2026-05-08 02:43 52.11974 19.23596 32270 ft 453 kts 255°
2026-05-08 02:43 52.11499 19.18542 32955 ft 451 kts 256°
2026-05-08 02:44 52.11026 19.13517 33624 ft 448 kts 256°
2026-05-08 02:44 52.10549 19.08459 34239 ft 445 kts 256°
2026-05-08 02:44 52.10083 19.03547 34671 ft 445 kts 256°
2026-05-08 02:44 52.09605 18.98530 35120 ft 445 kts 257°
2026-05-08 02:45 52.09127 18.93538 35450 ft 447 kts 258°
2026-05-08 02:45 52.08646 18.88532 35822 ft 448 kts 258°
2026-05-08 02:45 52.08169 18.83591 36191 ft 449 kts 258°
2026-05-08 02:45 52.07684 18.78582 36559 ft 449 kts 258°
2026-05-08 02:46 52.07197 18.73569 36923 ft 449 kts 258°
2026-05-08 02:46 52.06706 18.68545 37277 ft 450 kts 258°
2026-05-08 02:46 52.06213 18.63520 37627 ft 450 kts 258°
2026-05-08 02:46 52.05717 18.58496 37963 ft 450 kts 258°
2026-05-08 02:47 52.05220 18.53472 38302 ft 450 kts 259°
2026-05-08 02:47 52.04720 18.48449 38625 ft 451 kts 259°
2026-05-08 02:47 52.04217 18.43419 38913 ft 451 kts 259°
2026-05-08 02:47 52.03711 18.38385 39121 ft 452 kts 259°
2026-05-08 02:48 52.03203 18.33346 39355 ft 453 kts 259°
2026-05-08 02:48 52.02692 18.28300 39587 ft 453 kts 259°
2026-05-08 02:48 52.02179 18.23256 39828 ft 453 kts 259°
2026-05-08 02:48 52.01663 18.18210 40033 ft 454 kts 259°
2026-05-08 02:49 52.00619 18.08072 40116 ft 456 kts 259°
2026-05-08 02:49 51.99978 17.97840 40110 ft 459 kts 272°
2026-05-08 02:50 52.01026 17.87605 40134 ft 462 kts 281°
2026-05-08 02:50 52.02501 17.77431 40116 ft 463 kts 281°
2026-05-08 02:51 52.03882 17.67222 40119 ft 463 kts 280°
2026-05-08 02:51 52.05175 17.56981 40118 ft 463 kts 279°
2026-05-08 02:52 52.06436 17.46728 40122 ft 463 kts 279°
2026-05-08 02:52 52.07688 17.36471 40127 ft 462 kts 279°
2026-05-08 02:53 52.08922 17.26313 40124 ft 461 kts 279°
2026-05-08 02:53 52.10156 17.16078 40124 ft 461 kts 279°
2026-05-08 02:54 52.11380 17.05842 40125 ft 461 kts 279°
2026-05-08 02:54 52.12597 16.95597 40124 ft 461 kts 279°
2026-05-08 02:55 52.14404 16.80218 40124 ft 461 kts 279°
2026-05-08 02:56 52.15597 16.69970 40125 ft 461 kts 279°
2026-05-08 02:56 52.16746 16.59702 40125 ft 461 kts 278°
2026-05-08 02:57 52.17882 16.49424 40127 ft 461 kts 278°
2026-05-08 02:57 52.19038 16.39136 40133 ft 462 kts 279°
2026-05-08 02:58 52.20198 16.28841 40127 ft 462 kts 279°
2026-05-08 02:58 52.21343 16.18602 40129 ft 462 kts 278°
2026-05-08 02:59 52.22485 16.08301 40130 ft 462 kts 278°
2026-05-08 02:59 52.23619 15.97979 40139 ft 462 kts 278°
2026-05-08 03:00 52.24740 15.87691 40135 ft 461 kts 278°
2026-05-08 03:00 52.25852 15.77395 40130 ft 461 kts 278°
2026-05-08 03:01 52.26956 15.67086 40134 ft 461 kts 278°
2026-05-08 03:01 52.28051 15.56776 40133 ft 461 kts 278°
2026-05-08 03:02 52.29137 15.46456 40133 ft 461 kts 278°
2026-05-08 03:02 52.30214 15.36127 40129 ft 462 kts 278°
2026-05-08 03:03 52.31246 15.25773 40129 ft 461 kts 278°
2026-05-08 03:03 52.32267 15.15416 40129 ft 461 kts 278°
2026-05-08 03:04 52.33307 15.05063 40132 ft 461 kts 278°
2026-05-08 03:04 52.34349 14.94707 40133 ft 461 kts 278°
2026-05-08 03:05 52.35383 14.84341 40132 ft 461 kts 278°
2026-05-08 03:05 52.36402 14.74040 40132 ft 461 kts 278°
2026-05-08 03:06 52.37415 14.63681 40130 ft 461 kts 278°
2026-05-08 03:06 52.38123 14.53264 40129 ft 460 kts 271°
2026-05-08 03:07 52.38240 14.42791 40133 ft 460 kts 269°
2026-05-08 03:07 52.38270 14.34092 40132 ft 460 kts 269°
2026-05-08 03:08 52.38339 14.23628 40128 ft 460 kts 270°
2026-05-08 03:08 52.38428 14.13154 40129 ft 460 kts 270°
2026-05-08 03:09 52.38528 14.01000 40142 ft 459 kts 270°
2026-05-08 03:09 52.38592 13.92242 40142 ft 459 kts 270°
2026-05-08 03:10 52.38658 13.81795 40147 ft 459 kts 269°
2026-05-08 03:10 52.38715 13.71352 40153 ft 459 kts 269°
2026-05-08 03:11 52.38763 13.60909 40157 ft 459 kts 269°
2026-05-08 03:11 52.38802 13.50463 40164 ft 459 kts 269°
2026-05-08 03:12 52.38831 13.40021 40156 ft 458 kts 269°
2026-05-08 03:12 52.38851 13.29587 40153 ft 458 kts 269°
2026-05-08 03:13 52.38846 13.19209 40149 ft 458 kts 269°
2026-05-08 03:13 52.38798 13.08783 40135 ft 458 kts 269°
2026-05-08 03:14 52.38768 12.98342 40143 ft 458 kts 269°
2026-05-08 03:14 52.38748 12.87911 40137 ft 458 kts 269°
2026-05-08 03:15 52.38723 12.77507 40143 ft 458 kts 269°
2026-05-08 03:15 52.38689 12.67076 40143 ft 458 kts 269°
2026-05-08 03:16 52.38645 12.56639 40143 ft 458 kts 269°
2026-05-08 03:16 52.38592 12.46240 40146 ft 459 kts 268°
2026-05-08 03:17 52.38529 12.35794 40143 ft 459 kts 268°
2026-05-08 03:17 52.38458 12.25416 40143 ft 459 kts 268°
2026-05-08 03:18 52.38376 12.14976 40146 ft 459 kts 268°
2026-05-08 03:18 52.38286 12.04538 40145 ft 458 kts 268°
2026-05-08 03:19 52.38187 11.94098 40151 ft 458 kts 268°
2026-05-08 03:19 52.38065 11.83681 40149 ft 458 kts 268°
2026-05-08 03:20 52.37896 11.73273 40148 ft 458 kts 268°
2026-05-08 03:20 52.37746 11.62858 40143 ft 458 kts 268°
2026-05-08 03:21 52.37606 11.52444 40146 ft 458 kts 268°
2026-05-08 03:21 52.37461 11.42006 40148 ft 458 kts 268°
2026-05-08 03:22 52.37308 11.31595 40144 ft 458 kts 268°
2026-05-08 03:22 52.37145 11.21179 40145 ft 458 kts 268°
2026-05-08 03:23 52.36972 11.10762 40146 ft 458 kts 267°
2026-05-08 03:23 52.36790 11.00345 40149 ft 458 kts 267°
2026-05-08 03:24 52.36590 10.89936 40160 ft 457 kts 266°
2026-05-08 03:24 52.36247 10.79554 40154 ft 457 kts 265°
2026-05-08 03:25 52.35862 10.69180 40154 ft 457 kts 265°
2026-05-08 03:25 52.35485 10.58803 40154 ft 457 kts 266°
2026-05-08 03:26 52.35110 10.48426 40155 ft 457 kts 266°
2026-05-08 03:26 52.34729 10.38055 40157 ft 457 kts 265°
2026-05-08 03:27 52.34338 10.27675 40149 ft 457 kts 265°
2026-05-08 03:27 52.33937 10.17294 40149 ft 457 kts 265°
2026-05-08 03:28 52.33527 10.06922 40136 ft 457 kts 265°
2026-05-08 03:28 52.33109 9.96559 40152 ft 457 kts 265°
2026-05-08 03:29 52.32684 9.86263 40152 ft 457 kts 265°
2026-05-08 03:29 52.32247 9.75910 40153 ft 457 kts 265°
2026-05-08 03:30 52.31576 9.60401 40153 ft 456 kts 265°
2026-05-08 03:31 52.30578 9.39709 40132 ft 456 kts 264°
2026-05-08 03:32 52.29838 9.24198 40129 ft 457 kts 265°
2026-05-08 03:32 52.29348 9.13857 40129 ft 457 kts 264°
2026-05-08 03:33 52.28849 9.03521 40130 ft 456 kts 264°
2026-05-08 03:33 52.28340 8.93177 40129 ft 456 kts 264°
2026-05-08 03:34 52.27822 8.82832 40131 ft 456 kts 264°
2026-05-08 03:34 52.27295 8.72512 40132 ft 456 kts 264°
2026-05-08 03:35 52.26760 8.62204 40133 ft 456 kts 264°
2026-05-08 03:35 52.26215 8.51877 40130 ft 456 kts 264°
2026-05-08 03:36 52.25662 8.41564 40135 ft 456 kts 264°
2026-05-08 03:36 52.25100 8.31270 40130 ft 455 kts 264°
2026-05-08 03:37 52.24529 8.20983 40127 ft 455 kts 264°
2026-05-08 03:37 52.23906 8.10708 40126 ft 455 kts 263°
2026-05-08 03:38 52.23340 8.01406 40128 ft 455 kts 264°
2026-05-08 03:38 52.22732 7.91129 40136 ft 455 kts 264°
2026-05-08 03:39 52.22127 7.80862 40130 ft 455 kts 264°
2026-05-08 03:39 52.21518 7.70652 40129 ft 455 kts 263°
2026-05-08 03:40 52.20895 7.60387 40129 ft 455 kts 263°
2026-05-08 03:40 52.20264 7.50128 40128 ft 455 kts 263°
2026-05-08 03:41 52.19623 7.39872 40126 ft 455 kts 263°
2026-05-08 03:41 52.18975 7.29637 40121 ft 454 kts 263°
2026-05-08 03:42 52.18317 7.19391 40124 ft 454 kts 263°
2026-05-08 03:42 52.17650 7.09157 40119 ft 454 kts 263°
2026-05-08 03:43 52.16975 6.98919 40114 ft 454 kts 263°
2026-05-08 03:43 52.16290 6.88683 40125 ft 454 kts 263°
2026-05-08 03:44 52.15567 6.78481 40113 ft 454 kts 262°
2026-05-08 03:44 52.14823 6.68281 40108 ft 454 kts 262°
2026-05-08 03:45 52.14101 6.58101 40108 ft 454 kts 262°
2026-05-08 03:45 52.13380 6.47888 40105 ft 454 kts 262°
2026-05-08 03:46 52.12654 6.37699 40112 ft 453 kts 262°
2026-05-08 03:46 52.11919 6.27510 40101 ft 453 kts 262°
2026-05-08 03:47 52.11176 6.17337 40099 ft 453 kts 262°
2026-05-08 03:47 52.10423 6.07163 40101 ft 453 kts 262°
2026-05-08 03:48 52.09662 5.97005 40102 ft 453 kts 262°
2026-05-08 03:48 52.08893 5.86853 40107 ft 453 kts 262°
2026-05-08 03:49 52.08114 5.76685 40104 ft 452 kts 262°
2026-05-08 03:49 52.07327 5.66542 40101 ft 452 kts 262°
2026-05-08 03:50 52.06532 5.56400 40094 ft 453 kts 262°
2026-05-08 03:50 52.05706 5.46257 40095 ft 453 kts 261°
2026-05-08 03:51 52.04845 5.36124 40099 ft 453 kts 261°
2026-05-08 03:51 52.04005 5.25999 40083 ft 452 kts 261°
2026-05-08 03:52 52.03172 5.15866 40094 ft 452 kts 261°
2026-05-08 03:52 52.02335 5.05750 40075 ft 452 kts 261°
2026-05-08 03:53 52.01488 4.95638 40080 ft 452 kts 261°
2026-05-08 03:53 52.00638 4.85596 40086 ft 452 kts 261°
2026-05-08 03:54 51.99767 4.75415 40091 ft 452 kts 261°
2026-05-08 03:54 51.98894 4.65314 40096 ft 452 kts 261°
2026-05-08 03:55 51.98017 4.55274 40100 ft 452 kts 261°
2026-05-08 03:55 51.97127 4.45177 40110 ft 452 kts 261°
2026-05-08 03:56 51.96222 4.35026 40091 ft 452 kts 261°
2026-05-08 03:56 51.95315 4.24946 40102 ft 451 kts 261°
2026-05-08 03:57 51.94396 4.14950 40100 ft 451 kts 260°
2026-05-08 03:57 51.93416 4.04835 40096 ft 451 kts 260°
2026-05-08 03:58 51.92460 3.94786 40087 ft 451 kts 260°
2026-05-08 03:58 51.91521 3.84799 40071 ft 452 kts 260°
2026-05-08 03:59 51.90571 3.74734 40063 ft 452 kts 260°
2026-05-08 03:59 51.89606 3.64609 40058 ft 452 kts 260°
2026-05-08 04:00 51.88646 3.54635 40067 ft 452 kts 260°
2026-05-08 04:00 51.87669 3.44579 40080 ft 452 kts 260°
2026-05-08 04:01 51.86684 3.34536 40072 ft 452 kts 260°
2026-05-08 04:01 51.85683 3.24418 40085 ft 453 kts 260°
2026-05-08 04:02 51.84753 3.14413 40080 ft 453 kts 262°
2026-05-08 04:02 51.84048 3.04297 40073 ft 453 kts 263°
2026-05-08 04:03 51.83406 2.94185 39972 ft 447 kts 263°
2026-05-08 04:03 51.82776 2.84390 39343 ft 435 kts 263°
2026-05-08 04:03 51.82457 2.79548 38885 ft 434 kts 263°
2026-05-08 04:04 51.82136 2.74714 38277 ft 431 kts 263°
2026-05-08 04:04 51.81813 2.69902 37686 ft 431 kts 263°
2026-05-08 04:04 51.81482 2.65093 37144 ft 431 kts 262°
2026-05-08 04:04 51.81144 2.60283 36589 ft 430 kts 262°
2026-05-08 04:05 51.80807 2.55484 36040 ft 430 kts 262°
2026-05-08 04:05 51.80470 2.50690 35479 ft 429 kts 262°
2026-05-08 04:05 51.80135 2.45899 34934 ft 429 kts 262°
2026-05-08 04:05 51.79799 2.41110 34392 ft 428 kts 262°
2026-05-08 04:06 51.79463 2.36331 33792 ft 429 kts 262°
2026-05-08 04:06 51.79124 2.31545 33184 ft 429 kts 262°
2026-05-08 04:06 51.78779 2.26688 32598 ft 431 kts 262°
2026-05-08 04:06 51.78445 2.21875 32025 ft 431 kts 263°
2026-05-08 04:07 51.78139 2.17055 31453 ft 433 kts 263°
2026-05-08 04:07 51.77848 2.12203 30879 ft 434 kts 263°
2026-05-08 04:07 51.77568 2.07415 30317 ft 435 kts 263°
2026-05-08 04:07 51.77284 2.02546 29668 ft 436 kts 263°
2026-05-08 04:08 51.76997 1.97664 29066 ft 438 kts 263°
2026-05-08 04:08 51.76707 1.92768 28471 ft 439 kts 263°
2026-05-08 04:08 51.76413 1.87845 27885 ft 441 kts 263°
2026-05-08 04:08 51.76116 1.82932 27274 ft 439 kts 263°
2026-05-08 04:09 51.75819 1.78042 26665 ft 436 kts 263°
2026-05-08 04:09 51.75523 1.73190 26216 ft 433 kts 263°
2026-05-08 04:09 51.75225 1.68371 25831 ft 431 kts 263°
2026-05-08 04:09 51.74927 1.63579 25461 ft 429 kts 263°
2026-05-08 04:10 51.74621 1.58810 25113 ft 426 kts 263°
2026-05-08 04:10 51.74309 1.54044 24256 ft 424 kts 262°
2026-05-08 04:10 51.74001 1.49328 23389 ft 419 kts 263°
2026-05-08 04:10 51.73699 1.44686 22481 ft 414 kts 262°
2026-05-08 04:11 51.73401 1.40089 21758 ft 410 kts 262°
2026-05-08 04:11 51.73105 1.35537 21109 ft 407 kts 262°
2026-05-08 04:11 51.72811 1.31021 20507 ft 403 kts 262°
2026-05-08 04:11 51.72519 1.26546 19915 ft 400 kts 262°
2026-05-08 04:12 51.72227 1.22105 19328 ft 397 kts 262°
2026-05-08 04:12 51.71935 1.17698 18750 ft 394 kts 262°
2026-05-08 04:12 51.71644 1.13327 18151 ft 390 kts 262°
2026-05-08 04:12 51.71354 1.08994 17531 ft 387 kts 262°
2026-05-08 04:13 51.71066 1.04707 17116 ft 384 kts 262°
2026-05-08 04:13 51.70777 1.00436 16719 ft 382 kts 262°
2026-05-08 04:13 51.70488 0.96202 16340 ft 379 kts 262°
2026-05-08 04:13 51.70188 0.91970 15883 ft 380 kts 262°
2026-05-08 04:14 51.69886 0.87764 15078 ft 375 kts 262°
2026-05-08 04:14 51.69689 0.84997 14559 ft 373 kts 262°
2026-05-08 04:14 51.69397 0.80873 13875 ft 369 kts 262°
2026-05-08 04:14 51.69109 0.76801 13227 ft 365 kts 263°
2026-05-08 04:15 51.68824 0.72767 12662 ft 361 kts 263°
2026-05-08 04:15 51.68541 0.68787 12232 ft 355 kts 263°
2026-05-08 04:15 51.68261 0.64897 12063 ft 339 kts 263°
2026-05-08 04:15 51.67998 0.61252 11963 ft 316 kts 263°
2026-05-08 04:16 51.67752 0.57841 11860 ft 298 kts 263°
2026-05-08 04:16 51.67519 0.54620 11742 ft 284 kts 263°
2026-05-08 04:16 51.67292 0.51483 11585 ft 281 kts 263°
2026-05-08 04:16 51.67065 0.48366 11246 ft 279 kts 263°
2026-05-08 04:17 51.66837 0.45274 10752 ft 277 kts 263°
2026-05-08 04:17 51.66612 0.42217 10282 ft 273 kts 263°
2026-05-08 04:17 51.66391 0.39221 9880 ft 267 kts 263°
2026-05-08 04:17 51.66173 0.36269 9386 ft 264 kts 263°
2026-05-08 04:18 51.65956 0.33336 8944 ft 264 kts 263°
2026-05-08 04:18 51.65738 0.30395 8481 ft 264 kts 263°
2026-05-08 04:18 51.65520 0.27458 8085 ft 265 kts 263°
2026-05-08 04:18 51.65301 0.24505 7693 ft 266 kts 263°
2026-05-08 04:19 51.65080 0.21547 7328 ft 265 kts 262°
2026-05-08 04:19 51.64863 0.18645 7141 ft 255 kts 262°
2026-05-08 04:19 51.64661 0.15874 7024 ft 244 kts 263°
2026-05-08 04:19 51.64498 0.13222 7010 ft 241 kts 264°
2026-05-08 04:20 51.64342 0.10497 6998 ft 241 kts 264°
2026-05-08 04:20 51.64191 0.07807 6995 ft 241 kts 264°
2026-05-08 04:20 51.64041 0.05117 6994 ft 241 kts 264°
2026-05-08 04:20 51.63891 0.02420 6994 ft 241 kts 264°
2026-05-08 04:21 51.63742 -0.00267 6997 ft 241 kts 264°
2026-05-08 04:21 51.63592 -0.02964 6993 ft 241 kts 263°
2026-05-08 04:21 51.63442 -0.05650 6993 ft 241 kts 263°
2026-05-08 04:21 51.63292 -0.08332 6993 ft 241 kts 263°
2026-05-08 04:22 51.63141 -0.11018 6994 ft 241 kts 263°
2026-05-08 04:22 51.62990 -0.13702 6994 ft 241 kts 263°
2026-05-08 04:22 51.62839 -0.16386 6995 ft 241 kts 263°
2026-05-08 04:22 51.62688 -0.19036 6995 ft 241 kts 263°
2026-05-08 04:23 51.62536 -0.21718 6992 ft 241 kts 263°
2026-05-08 04:23 51.62382 -0.24402 6995 ft 241 kts 263°
2026-05-08 04:23 51.62229 -0.27085 6995 ft 241 kts 263°
2026-05-08 04:23 51.62074 -0.29766 6995 ft 241 kts 263°
2026-05-08 04:24 51.61919 -0.32448 6996 ft 241 kts 263°
2026-05-08 04:24 51.61763 -0.35133 6995 ft 241 kts 263°
2026-05-08 04:24 51.61607 -0.37819 6994 ft 241 kts 263°
2026-05-08 04:24 51.61450 -0.40499 6994 ft 241 kts 263°
2026-05-08 04:25 51.61292 -0.43182 6995 ft 241 kts 263°
2026-05-08 04:25 51.61134 -0.45868 6996 ft 241 kts 263°
2026-05-08 04:25 51.60976 -0.48544 6994 ft 241 kts 263°
2026-05-08 04:25 51.60816 -0.51228 6995 ft 241 kts 263°
2026-05-08 04:26 51.60656 -0.53906 6994 ft 241 kts 263°
2026-05-08 04:26 51.60496 -0.56590 6995 ft 241 kts 263°
2026-05-08 04:26 51.60335 -0.59266 6993 ft 241 kts 263°
2026-05-08 04:26 51.60173 -0.61948 6993 ft 241 kts 263°
2026-05-08 04:27 51.60007 -0.64626 6993 ft 241 kts 263°
2026-05-08 04:27 51.59832 -0.67311 6811 ft 243 kts 263°
2026-05-08 04:27 51.59658 -0.69994 6436 ft 241 kts 263°
2026-05-08 04:27 51.59486 -0.72671 6084 ft 240 kts 263°
2026-05-08 04:28 51.59270 -0.75323 5997 ft 239 kts 255°
2026-05-08 04:28 51.58605 -0.77750 5673 ft 239 kts 230°
2026-05-08 04:28 51.57300 -0.79281 5042 ft 232 kts 197°
2026-05-08 04:28 51.55742 -0.79424 4595 ft 223 kts 168°
2026-05-08 04:29 51.54307 -0.78765 4216 ft 206 kts 161°
2026-05-08 04:29 51.52988 -0.78044 3828 ft 194 kts 161°
2026-05-08 04:29 51.51749 -0.77364 3527 ft 180 kts 161°
2026-05-08 04:29 51.50628 -0.76753 3474 ft 161 kts 161°
2026-05-08 04:30 51.49619 -0.76191 3452 ft 149 kts 158°
2026-05-08 04:30 51.48738 -0.75372 3426 ft 147 kts 140°
2026-05-08 04:30 51.48103 -0.74099 3070 ft 146 kts 117°
2026-05-08 04:30 51.47858 -0.72534 2668 ft 146 kts 95°
2026-05-08 04:31 51.47789 -0.70916 2495 ft 146 kts 98°
2026-05-08 04:31 51.47713 -0.69286 2506 ft 147 kts 96°
2026-05-08 04:31 51.47679 -0.67640 2485 ft 148 kts 93°
2026-05-08 04:31 51.47690 -0.65991 2302 ft 147 kts 92°
2026-05-08 04:32 51.47697 -0.64354 2107 ft 147 kts 93°
2026-05-08 04:32 51.47704 -0.62721 1904 ft 146 kts 93°
2026-05-08 04:32 51.47709 -0.61101 1700 ft 145 kts 93°
2026-05-08 04:32 51.47717 -0.59487 1531 ft 144 kts 92°
2026-05-08 04:33 51.47736 -0.57875 1339 ft 144 kts 91°
2026-05-08 04:33 51.47747 -0.56272 1135 ft 143 kts 92°
2026-05-08 04:33 51.47740 -0.54690 896 ft 143 kts 91°
2026-05-08 04:33 51.47738 -0.53093 679 ft 143 kts 90°
2026-05-08 04:34 51.47748 -0.51502 498 ft 143 kts 89°
2026-05-08 04:34 51.47760 -0.49909 295 ft 142 kts 89°
2026-05-08 04:34 51.47757 -0.48332 124 ft 142 kts 89°
2026-05-08 04:34 51.47762 -0.46910 96 ft 102 kts 89°
2026-05-08 04:35 51.47761 -0.46091 96 ft 45 kts 90°
2026-05-08 04:35 51.47762 -0.45730 93 ft 35 kts 90°
2026-05-08 04:35 51.47686 -0.45484 95 ft 16 kts 160°
2026-05-08 04:35 51.47618 -0.45521 95 ft 13 kts 231°
2026-05-08 04:36 51.47591 -0.45692 95 ft 16 kts 267°
2026-05-08 04:36 51.47591 -0.45887 93 ft 19 kts 271°
2026-05-08 04:36 51.47584 -0.46113 97 ft 22 kts 270°
2026-05-08 04:36 51.47589 -0.46356 94 ft 22 kts 271°
2026-05-08 04:37 51.47591 -0.46598 94 ft 22 kts 270°
2026-05-08 04:37 51.47588 -0.46834 94 ft 20 kts 266°
2026-05-08 04:37 51.47531 -0.46908 94 ft 9 kts 161°
2026-05-08 04:37 51.47496 -0.46811 96 ft 11 kts 103°
2026-05-08 04:38 51.47511 -0.46672 96 ft 15 kts 82°
2026-05-08 04:38 51.47515 -0.46510 94 ft 15 kts 90°
2026-05-08 04:38 51.47496 -0.46420 95 ft 2 kts 149°
2026-05-08 04:38 51.47472 -0.46413 96 ft 7 kts 173°
2026-05-08 04:39 51.47434 -0.46410 94 ft 1 kts 179°
2026-05-08 04:39 51.47430 -0.46410 95 ft 0 kts 179°